Location: Unspecified
(30.9985°N, 0.0000°E)
Time: 06:12:42
(UTC+00:00)

LilacSat-2 - Visible Passes

Search period start: 05 April 2026 00:00
Search period end: 15 April 2026 00:00
Orbit: 415 x 426 km, 97.5° (Epoch: 29 March)

Date Brightness Start Highest point End Pass type
(mag) Time Alt. Az. Time Alt. Az. Time Alt. Az.
5 Apr ? 18:55:06 10° SE 18:57:56 29° ENE 19:00:48 10° NNE visible
6 Apr ? 19:42:39 10° S 19:45:42 39° W 19:48:44 10° NNW visible
7 Apr ? 18:58:32 10° SE 19:01:28 33° ENE 19:04:24 10° N visible
8 Apr ? 19:46:11 10° SSW 19:49:08 34° W 19:52:08 10° NNW visible
9 Apr ? 19:01:51 10° SE 19:04:50 37° ENE 19:07:50 10° N visible
10 Apr ? 19:49:34 10° SSW 19:52:28 31° W 19:55:22 10° NW visible
11 Apr ? 19:05:01 10° SSE 19:08:03 41° ENE 19:11:06 10° N visible
12 Apr ? 19:52:49 10° SSW 19:55:37 28° W 19:58:26 10° NW visible
13 Apr ? 19:08:03 10° SSE 19:11:08 46° ENE 19:14:13 10° N visible
14 Apr ? 19:55:55 10° SSW 19:58:38 25° W 20:01:21 10° NW visible
